map of NZPG home
Great Circle Mapper logo
NZPG - Airport
Location
City:  McMurdo Station, Ross Island, Antarctica
Name:Pegasus Field
ICAO:NZPG

Details
Type:Airport (Aerodrome, Airfield)
Latitude:77°57'48"S (-77.963440)
Longitude:166°31'29"E (166.524609)
Datum:other
Elevation:18 ft (5 m)
Variation:143.03°E (WMM2015 magnetic declination)
-0.21° annual change
Runways:1
Longest:10000 × 220 ft (3048 × 67 m)

Time
Time Zone:UTC+12 (DST+13)
Local Time:

Weather
METAR:NZPG 280330Z 15003KT 9999 IC VCFG FEW000 SCT035 BKN070 M27/M30 A2901 RMK FG FEW000 VCFG GRID S FG DSNT GRID SE AND SW-NW GRID32003KT SDG/HDP HDG GRID N-E LAST

Related Locations
Nearby:
Farthest:ENAS: 12075 mi / 19433 km
Ny-Ålesund [Ny-Ålesund Hamnerabben (Broggerhalvoya)], Svalbard, NO

Find:

   beyond  
but within

Other Information
Maps:
NOTAMs:
Links:
Sources:

  

Sectional Chart

Flight Planning
at skyvector.com

Satellite Image

Google Maps Satellite View

 

Copyright © 2004-2015 Karl L. Swartz. All rights reserved.
The Great Circle Mapper name and logo are trademarks of the Great Circle Mapper.
All other trademarks mentioned herein belong to their respective owners.
Please see credits for attibutions and further copyright information.

  Follow gcmap on Facebook Follow gcmap on Twitter Follow gcmap on Google+

hCard Microformat

Geo Microformat